CHH7306 ZWWW-ZLDH

Flight info

Callsign CHH7306
Flight time 2h 9m
Altitude 29100
Route WUR W190 ADPET W188 DAKPA W189 AKLAS W192 ESDEX W191 MOVBI MOVBI9
Aircraft B738/M-SDE2E3FGHIRWXY/LB1

Departure

Time 2026-05-04 08:00
Airport Ürümqi Tianshan International Airport (ZWWW)

Arrival

Time 2026-05-04 10:09
Airport Dunhuang Mogao International Airport (ZLDH)
Time Latitude Longitude Altitude Speed Heading
2026-05-04 07:42 43.91874 87.46955 2135 ft 0 kts 162°
2026-05-04 07:49 43.91974 87.46970 2132 ft 0 kts 252°
2026-05-04 07:51 43.91973 87.46964 2132 ft 2 kts 252°
2026-05-04 07:51 43.91960 87.46910 2134 ft 10 kts 252°
2026-05-04 07:51 43.91935 87.46790 2135 ft 15 kts 255°
2026-05-04 07:52 43.91905 87.46645 2135 ft 15 kts 253°
2026-05-04 07:52 43.91875 87.46506 2135 ft 15 kts 253°
2026-05-04 07:52 43.91847 87.46372 2135 ft 14 kts 253°
2026-05-04 07:52 43.91820 87.46245 2134 ft 13 kts 253°
2026-05-04 07:53 43.91794 87.46123 2133 ft 13 kts 253°
2026-05-04 07:54 43.91631 87.45357 2135 ft 11 kts 253°
2026-05-04 07:55 43.91630 87.45259 2133 ft 10 kts 298°
2026-05-04 07:55 43.91693 87.45216 2135 ft 10 kts 344°
2026-05-04 07:55 43.91760 87.45190 2135 ft 10 kts 345°
2026-05-04 07:55 43.91821 87.45168 2135 ft 0 kts 345°
2026-05-04 07:58 43.91835 87.45163 2135 ft 6 kts 345°
2026-05-04 07:59 43.91897 87.45145 2136 ft 11 kts
2026-05-04 07:59 43.91963 87.45243 2135 ft 36 kts 71°
2026-05-04 07:59 43.92115 87.45966 2136 ft 118 kts 73°
2026-05-04 07:59 43.92447 87.47345 2235 ft 176 kts 70°
2026-05-04 08:00 43.92843 87.49084 2804 ft 201 kts 72°
2026-05-04 08:00 43.93239 87.50842 4137 ft 186 kts 69°
2026-05-04 08:00 43.93679 87.52616 4924 ft 206 kts 69°
2026-05-04 08:02 44.01702 87.60612 8829 ft 256 kts 348°
2026-05-04 08:02 44.03455 87.60086 9469 ft 259 kts 348°
2026-05-04 08:02 44.05235 87.59572 10153 ft 264 kts 348°
2026-05-04 08:03 44.07027 87.59071 10946 ft 267 kts 347°
2026-05-04 08:03 44.08851 87.58567 11790 ft 269 kts 347°
2026-05-04 08:03 44.10706 87.58067 12538 ft 275 kts 350°
2026-05-04 08:03 44.12641 87.58179 13204 ft 289 kts 12°
2026-05-04 08:04 44.14641 87.59070 13460 ft 316 kts 18°
2026-05-04 08:04 44.16790 87.60156 13661 ft 341 kts 18°
2026-05-04 08:04 44.19097 87.61338 13829 ft 365 kts 18°
2026-05-04 08:04 44.21544 87.62581 14067 ft 383 kts 18°
2026-05-04 08:05 44.24080 87.63852 14568 ft 391 kts 18°
2026-05-04 08:05 44.26617 87.65113 15236 ft 393 kts 18°
2026-05-04 08:05 44.29207 87.66392 15941 ft 396 kts 17°
2026-05-04 08:05 44.31819 87.67681 16595 ft 400 kts 17°
2026-05-04 08:06 44.34455 87.68984 17221 ft 404 kts 17°
2026-05-04 08:06 44.37121 87.70307 17827 ft 409 kts 17°
2026-05-04 08:06 44.39814 87.71649 18374 ft 413 kts 17°
2026-05-04 08:06 44.42529 87.73007 18915 ft 416 kts 17°
2026-05-04 08:08 44.61939 87.82828 22624 ft 434 kts 17°
2026-05-04 08:08 44.64787 87.84282 23104 ft 437 kts 17°
2026-05-04 08:10 44.88283 87.96497 25855 ft 465 kts 17°
2026-05-04 08:11 44.91317 87.98110 26163 ft 468 kts 17°
2026-05-04 08:11 44.97403 88.01369 26769 ft 474 kts 17°
2026-05-04 08:11 45.00497 88.03039 27054 ft 477 kts 17°
2026-05-04 08:12 45.03602 88.04721 27357 ft 480 kts 17°
2026-05-04 08:12 45.06722 88.06420 27737 ft 480 kts 17°
2026-05-04 08:12 45.09836 88.08127 28197 ft 479 kts 17°
2026-05-04 08:12 45.12937 88.09841 28662 ft 478 kts 17°
2026-05-04 08:13 45.16033 88.11565 28960 ft 480 kts 17°
2026-05-04 08:13 45.19157 88.13309 28940 ft 484 kts 17°
2026-05-04 08:13 45.25384 88.16808 28936 ft 477 kts 17°
2026-05-04 08:14 45.31493 88.20277 28950 ft 476 kts 17°
2026-05-04 08:16 45.56051 88.34449 28938 ft 476 kts 17°
2026-05-04 08:16 45.62170 88.38041 28943 ft 475 kts 17°
2026-05-04 08:17 45.68272 88.41648 28942 ft 474 kts 17°
2026-05-04 08:17 45.74359 88.45270 28934 ft 473 kts 17°
2026-05-04 08:19 45.98626 88.59912 28936 ft 475 kts 17°
2026-05-04 08:20 46.04656 88.63662 28929 ft 479 kts 21°
2026-05-04 08:20 46.10082 88.69408 28922 ft 495 kts 45°
2026-05-04 08:21 46.11969 88.73598 28943 ft 504 kts 63°
2026-05-04 08:21 46.12991 88.78436 28936 ft 509 kts 81°
2026-05-04 08:21 46.13114 88.83527 28941 ft 509 kts 97°
2026-05-04 08:21 46.12341 88.88483 28931 ft 506 kts 113°
2026-05-04 08:22 46.10712 88.92925 28927 ft 499 kts 130°
2026-05-04 08:22 46.08342 88.96483 28928 ft 488 kts 148°
2026-05-04 08:24 45.86480 89.01193 28919 ft 459 kts 185°
2026-05-04 08:24 45.83285 89.01294 28920 ft 459 kts 185°
2026-05-04 08:24 45.76938 89.01537 28922 ft 460 kts 184°
2026-05-04 08:25 45.70545 89.01805 28919 ft 460 kts 184°
2026-05-04 08:25 45.64151 89.02074 28924 ft 460 kts 184°
2026-05-04 08:27 45.38660 89.03128 28931 ft 458 kts 184°
2026-05-04 08:28 45.32288 89.03389 28922 ft 458 kts 184°
2026-05-04 08:28 45.25974 89.03648 28923 ft 457 kts 184°
2026-05-04 08:29 45.19624 89.03907 28924 ft 456 kts 184°
2026-05-04 08:31 44.94415 89.04931 28902 ft 452 kts 183°
2026-05-04 08:33 44.69407 89.05937 28892 ft 449 kts 183°
2026-05-04 08:35 44.48643 89.12591 28892 ft 482 kts 130°
2026-05-04 08:35 44.46994 89.16696 28893 ft 489 kts 112°
2026-05-04 08:35 44.46220 89.21354 28909 ft 493 kts 100°
2026-05-04 08:35 44.45786 89.26123 28892 ft 494 kts 98°
2026-05-04 08:37 44.42759 89.59546 28870 ft 496 kts 99°
2026-05-04 08:38 44.41793 89.69108 28867 ft 496 kts 102°
2026-05-04 08:38 44.39977 89.78365 28864 ft 494 kts 109°
2026-05-04 08:40 44.31832 90.14973 28858 ft 495 kts 109°
2026-05-04 08:41 44.29807 90.24156 28855 ft 495 kts 109°
2026-05-04 08:41 44.27773 90.33333 28855 ft 495 kts 109°
2026-05-04 08:42 44.25742 90.42450 28853 ft 496 kts 109°
2026-05-04 08:42 44.23687 90.51636 28854 ft 496 kts 109°
2026-05-04 08:43 44.21622 90.60827 28857 ft 497 kts 110°
2026-05-04 08:43 44.19549 90.70016 28859 ft 497 kts 110°
2026-05-04 08:44 44.17818 90.77660 28860 ft 498 kts 110°
2026-05-04 08:46 44.09433 91.14375 28859 ft 499 kts 110°
2026-05-04 08:46 44.06983 91.25059 28863 ft 499 kts 110°
2026-05-04 08:47 44.04735 91.34173 28845 ft 496 kts 120°
2026-05-04 08:47 44.03526 91.36836 28873 ft 489 kts 132°
2026-05-04 08:47 44.00208 91.41003 28884 ft 477 kts 153°
2026-05-04 08:48 43.95223 91.43859 28870 ft 461 kts 175°
2026-05-04 08:48 43.87878 91.45170 28882 ft 458 kts 179°
2026-05-04 08:49 43.81877 91.46136 28878 ft 460 kts 178°
2026-05-04 08:50 43.59699 91.50091 28862 ft 460 kts 178°
2026-05-04 08:51 43.53397 91.51221 28850 ft 459 kts 178°
2026-05-04 08:51 43.47063 91.52353 28837 ft 459 kts 178°
2026-05-04 08:52 43.40731 91.53487 28818 ft 459 kts 178°
2026-05-04 08:52 43.34400 91.54634 28807 ft 459 kts 178°
2026-05-04 08:54 43.09056 91.59208 28760 ft 462 kts 178°
2026-05-04 08:55 43.02723 91.60345 28749 ft 463 kts 178°
2026-05-04 08:55 42.96328 91.61490 28738 ft 464 kts 178°
2026-05-04 09:01 42.28959 91.73527 28751 ft 467 kts 178°
2026-05-04 09:01 42.22553 91.74680 28758 ft 467 kts 178°
2026-05-04 09:02 42.16113 91.75821 28762 ft 467 kts 178°
2026-05-04 09:02 42.09666 91.76958 28759 ft 467 kts 178°
2026-05-04 09:03 42.03228 91.78098 28760 ft 466 kts 177°
2026-05-04 09:03 41.96809 91.79235 28761 ft 466 kts 177°
2026-05-04 09:04 41.90431 91.80362 28771 ft 465 kts 177°
2026-05-04 09:04 41.84010 91.81494 28761 ft 465 kts 177°
2026-05-04 09:05 41.77588 91.82624 28761 ft 464 kts 177°
2026-05-04 09:05 41.71189 91.83748 28759 ft 464 kts 177°
2026-05-04 09:06 41.64890 91.85440 28745 ft 474 kts 159°
2026-05-04 09:07 41.50731 92.10472 28084 ft 492 kts 125°
2026-05-04 09:08 41.48897 92.14313 27831 ft 491 kts 125°
2026-05-04 09:08 41.47080 92.18085 27576 ft 488 kts 125°
2026-05-04 09:08 41.45245 92.21878 27318 ft 486 kts 125°
2026-05-04 09:08 41.43413 92.25653 27069 ft 485 kts 125°
2026-05-04 09:09 41.41580 92.29425 26814 ft 483 kts 125°
2026-05-04 09:09 41.39758 92.33169 26563 ft 481 kts 125°
2026-05-04 09:09 41.37939 92.36906 26311 ft 480 kts 125°
2026-05-04 09:09 41.36127 92.40625 26071 ft 478 kts 125°
2026-05-04 09:10 41.34315 92.44339 25830 ft 477 kts 125°
2026-05-04 09:10 41.32513 92.48030 25586 ft 475 kts 125°
2026-05-04 09:10 41.30714 92.51712 25346 ft 474 kts 125°
2026-05-04 09:10 41.28947 92.55323 25109 ft 472 kts 125°
2026-05-04 09:11 41.27159 92.58972 24876 ft 470 kts 125°
2026-05-04 09:11 41.25374 92.62613 24638 ft 468 kts 125°
2026-05-04 09:11 41.23601 92.66222 24410 ft 467 kts 125°
2026-05-04 09:11 41.21829 92.69826 24179 ft 465 kts 125°
2026-05-04 09:12 41.20065 92.73409 23951 ft 463 kts 125°
2026-05-04 09:12 41.18306 92.76978 23727 ft 461 kts 125°
2026-05-04 09:14 41.06233 93.01366 21669 ft 438 kts 125°
2026-05-04 09:14 41.04567 93.04717 21092 ft 434 kts 125°
2026-05-04 09:14 41.02914 93.08035 20489 ft 431 kts 125°
2026-05-04 09:14 41.01269 93.11335 19953 ft 426 kts 125°
2026-05-04 09:15 40.99644 93.14592 19449 ft 421 kts 125°
2026-05-04 09:15 40.98040 93.17803 18959 ft 417 kts 124°
2026-05-04 09:15 40.96469 93.20945 18448 ft 413 kts 124°
2026-05-04 09:15 40.94889 93.24103 17951 ft 410 kts 124°
2026-05-04 09:17 40.83384 93.46999 16131 ft 332 kts 125°
2026-05-04 09:18 40.82117 93.49509 15913 ft 326 kts 125°
2026-05-04 09:18 40.80868 93.51983 15655 ft 322 kts 125°
2026-05-04 09:18 40.79631 93.54430 15414 ft 318 kts 125°
2026-05-04 09:18 40.78412 93.56842 15166 ft 314 kts 125°
2026-05-04 09:19 40.77206 93.59222 14929 ft 310 kts 126°
2026-05-04 09:19 40.76013 93.61577 14689 ft 307 kts 126°
2026-05-04 09:19 40.74642 93.63601 14716 ft 288 kts 147°
2026-05-04 09:19 40.72901 93.64690 14716 ft 269 kts 171°
2026-05-04 09:20 40.71111 93.64817 14719 ft 257 kts 191°
2026-05-04 09:20 40.69414 93.64118 14733 ft 258 kts 210°
2026-05-04 09:20 40.67976 93.62686 14726 ft 263 kts 230°
2026-05-04 09:20 40.66998 93.60665 14720 ft 263 kts 250°
2026-05-04 09:21 40.66651 93.58329 14716 ft 260 kts 269°
2026-05-04 09:21 40.66879 93.55976 14709 ft 260 kts 286°
2026-05-04 09:21 40.67696 93.53853 14728 ft 260 kts 300°
2026-05-04 09:21 40.68676 93.51841 14720 ft 261 kts 301°
2026-05-04 09:22 40.69653 93.49869 14721 ft 261 kts 301°
2026-05-04 09:22 40.70645 93.47867 14721 ft 262 kts 301°
2026-05-04 09:22 40.71639 93.45850 14727 ft 262 kts 301°
2026-05-04 09:22 40.72633 93.43828 14723 ft 263 kts 301°
2026-05-04 09:23 40.73631 93.41794 14726 ft 264 kts 301°
2026-05-04 09:23 40.74682 93.39812 14715 ft 267 kts 312°
2026-05-04 09:23 40.76203 93.38390 14730 ft 271 kts 333°
2026-05-04 09:23 40.78032 93.37752 14731 ft 276 kts 353°
2026-05-04 09:25 40.81384 93.50768 14739 ft 283 kts 126°
2026-05-04 09:25 40.80290 93.52939 14733 ft 284 kts 125°
2026-05-04 09:26 40.79197 93.55123 14727 ft 285 kts 125°
2026-05-04 09:26 40.78123 93.57287 14732 ft 286 kts 125°
2026-05-04 09:26 40.77025 93.59510 14729 ft 286 kts 125°
2026-05-04 09:26 40.75954 93.61682 14732 ft 286 kts 125°
2026-05-04 09:27 40.74641 93.63597 14711 ft 280 kts 150°
2026-05-04 09:27 40.72869 93.64510 14724 ft 272 kts 176°
2026-05-04 09:27 40.71016 93.64314 14723 ft 265 kts 201°
2026-05-04 09:27 40.69438 93.63151 14722 ft 260 kts 224°
2026-05-04 09:28 40.68368 93.61264 14717 ft 258 kts 247°
2026-05-04 09:28 40.67972 93.58986 14718 ft 257 kts 269°
2026-05-04 09:28 40.68231 93.56654 14715 ft 259 kts 289°
2026-05-04 09:28 40.69058 93.54540 14731 ft 261 kts 300°
2026-05-04 09:29 40.70047 93.52558 14724 ft 264 kts 302°
2026-05-04 09:29 40.71078 93.50541 14723 ft 265 kts 302°
2026-05-04 09:29 40.72098 93.48517 14717 ft 266 kts 301°
2026-05-04 09:29 40.73106 93.46487 14720 ft 264 kts 301°
2026-05-04 09:30 40.74104 93.44464 14709 ft 263 kts 301°
2026-05-04 09:30 40.74761 93.43127 14713 ft 263 kts 301°
2026-05-04 09:30 40.75966 93.41316 14710 ft 267 kts 323°
2026-05-04 09:30 40.77673 93.40332 14728 ft 274 kts 347°
2026-05-04 09:31 40.80201 93.40595 14735 ft 283 kts 20°
2026-05-04 09:31 40.81837 93.42055 14734 ft 289 kts 47°
2026-05-04 09:31 40.82573 93.43519 14729 ft 291 kts 66°
2026-05-04 09:31 40.82945 93.46153 14728 ft 291 kts 96°
2026-05-04 09:32 40.82403 93.48656 14742 ft 288 kts 120°
2026-05-04 09:32 40.80982 93.51646 14733 ft 287 kts 126°
2026-05-04 09:34 40.72109 93.64540 14714 ft 267 kts 187°
2026-05-04 09:34 40.70915 93.64243 14724 ft 262 kts 203°
2026-05-04 09:34 40.69379 93.63031 14729 ft 257 kts 226°
2026-05-04 09:34 40.68359 93.61126 14724 ft 256 kts 249°
2026-05-04 09:35 40.68005 93.58846 14726 ft 256 kts 270°
2026-05-04 09:35 40.68546 93.55830 14714 ft 261 kts 297°
2026-05-04 09:35 40.69184 93.54448 14734 ft 262 kts 301°
2026-05-04 09:35 40.70190 93.52427 14722 ft 265 kts 301°
2026-05-04 09:37 40.79245 93.40312 14721 ft 278 kts
2026-05-04 09:37 40.81048 93.41235 14721 ft 282 kts 33°
2026-05-04 09:38 40.82001 93.42400 14722 ft 284 kts 52°
2026-05-04 09:38 40.82826 93.44743 14724 ft 284 kts 80°
2026-05-04 09:38 40.82764 93.47324 14736 ft 282 kts 107°
2026-05-04 09:38 40.81958 93.49661 14739 ft 281 kts 124°
2026-05-04 09:39 40.80529 93.52520 14734 ft 283 kts 126°
2026-05-04 09:39 40.79789 93.53971 14733 ft 284 kts 126°
2026-05-04 09:39 40.78692 93.56151 14727 ft 286 kts 125°
2026-05-04 09:39 40.77242 93.59072 14731 ft 287 kts 125°
2026-05-04 09:40 40.76152 93.61280 14517 ft 292 kts 125°
2026-05-04 09:40 40.75358 93.62760 14260 ft 294 kts 135°
2026-05-04 09:40 40.73733 93.64261 13902 ft 288 kts 163°
2026-05-04 09:40 40.71785 93.64598 13566 ft 282 kts 190°
2026-05-04 09:41 40.69965 93.63766 13214 ft 278 kts 214°
2026-05-04 09:42 40.72198 93.48377 10652 ft 284 kts 303°
2026-05-04 09:43 40.73284 93.46185 10299 ft 285 kts 303°
2026-05-04 09:43 40.74363 93.43992 9948 ft 286 kts 304°
2026-05-04 09:43 40.75515 93.41851 9588 ft 285 kts 316°
2026-05-04 09:43 40.77156 93.40500 9433 ft 275 kts 343°
2026-05-04 09:44 40.79002 93.40250 9400 ft 262 kts
2026-05-04 09:44 40.80674 93.41018 9389 ft 251 kts 32°
2026-05-04 09:44 40.81912 93.42536 9391 ft 246 kts 53°
2026-05-04 09:46 40.78188 93.57155 9400 ft 261 kts 121°
2026-05-04 09:46 40.77198 93.59161 9392 ft 261 kts 121°
2026-05-04 09:46 40.76209 93.61165 9400 ft 260 kts 121°
2026-05-04 09:47 40.75107 93.63037 9381 ft 262 kts 140°
2026-05-04 09:47 40.73510 93.64084 9395 ft 263 kts 168°
2026-05-04 09:49 40.71622 93.52621 9395 ft 250 kts 306°
2026-05-04 09:49 40.72588 93.50700 9395 ft 251 kts 306°
2026-05-04 09:49 40.73547 93.48780 9396 ft 251 kts 307°
2026-05-04 09:51 40.80094 93.52872 9376 ft 255 kts 104°
2026-05-04 09:51 40.79374 93.55004 9374 ft 256 kts 117°
2026-05-04 09:51 40.78463 93.56975 9371 ft 255 kts 120°
2026-05-04 09:51 40.77496 93.58945 9366 ft 256 kts 121°
2026-05-04 09:52 40.76529 93.60905 9374 ft 255 kts 121°
2026-05-04 09:52 40.75566 93.62870 9369 ft 256 kts 120°
2026-05-04 09:52 40.74597 93.64858 9371 ft 257 kts 120°
2026-05-04 09:52 40.73631 93.66851 9369 ft 258 kts 121°
2026-05-04 09:53 40.72664 93.68853 9367 ft 260 kts 120°
2026-05-04 09:53 40.71684 93.70883 9177 ft 266 kts 120°
2026-05-04 09:53 40.70701 93.72926 8936 ft 267 kts 120°
2026-05-04 09:53 40.69708 93.74987 8683 ft 266 kts 120°
2026-05-04 09:54 40.68720 93.77040 8433 ft 264 kts 119°
2026-05-04 09:54 40.67739 93.79078 8185 ft 263 kts 120°
2026-05-04 09:54 40.66761 93.81109 7949 ft 262 kts 119°
2026-05-04 09:54 40.65785 93.83137 7681 ft 261 kts 119°
2026-05-04 09:55 40.64818 93.85146 7447 ft 258 kts 120°
2026-05-04 09:55 40.63860 93.87136 7185 ft 257 kts 119°
2026-05-04 09:55 40.62909 93.89109 7000 ft 253 kts 120°
2026-05-04 09:55 40.61975 93.91047 6917 ft 258 kts 120°
2026-05-04 09:56 40.61014 93.93041 6882 ft 257 kts 120°
2026-05-04 09:56 40.60067 93.95003 6878 ft 252 kts 120°
2026-05-04 09:56 40.59129 93.96941 6878 ft 251 kts 120°
2026-05-04 09:56 40.58195 93.98876 6890 ft 252 kts 120°
2026-05-04 09:57 40.57251 94.00828 6900 ft 253 kts 120°
2026-05-04 09:57 40.56304 94.02787 6873 ft 255 kts 120°
2026-05-04 09:57 40.55354 94.04750 6884 ft 254 kts 120°
2026-05-04 09:57 40.54419 94.06681 6878 ft 253 kts 120°
2026-05-04 09:58 40.53475 94.08627 6858 ft 251 kts 120°
2026-05-04 09:58 40.52544 94.10547 6881 ft 248 kts 120°
2026-05-04 09:58 40.51611 94.12468 6857 ft 250 kts 121°
2026-05-04 10:00 40.45027 94.26002 6857 ft 255 kts 121°
2026-05-04 10:00 40.44035 94.27925 6856 ft 254 kts 126°
2026-05-04 10:02 40.36125 94.40058 6858 ft 250 kts 129°
2026-05-04 10:04 40.27531 94.53291 6835 ft 282 kts 129°
2026-05-04 10:04 40.26272 94.55223 6838 ft 281 kts 130°
2026-05-04 10:04 40.24747 94.56789 6844 ft 280 kts 156°
2026-05-04 10:04 40.22878 94.57414 6788 ft 278 kts 174°
2026-05-04 10:05 40.20955 94.57664 6508 ft 276 kts 175°
2026-05-04 10:05 40.19057 94.57885 6325 ft 272 kts 175°
2026-05-04 10:05 40.17182 94.58116 6146 ft 269 kts 174°
2026-05-04 10:05 40.15436 94.58872 5945 ft 264 kts 142°
2026-05-04 10:06 40.14423 94.60738 5876 ft 248 kts 102°
2026-05-04 10:06 40.14481 94.62878 5883 ft 232 kts 73°
2026-05-04 10:06 40.14855 94.64932 5882 ft 232 kts 76°
2026-05-04 10:08 40.15979 94.78187 3926 ft 235 kts 87°
2026-05-04 10:08 40.16108 94.80225 3693 ft 214 kts 84°
2026-05-04 10:08 40.16276 94.82038 3652 ft 175 kts 90°
2026-05-04 10:08 40.16587 94.83054 3639 ft 85 kts 14°
2026-05-04 10:09 40.16882 94.82838 3630 ft 31 kts 258°
2026-05-04 10:09 40.16840 94.82735 3637 ft 7 kts 231°